Baton Rouge, LA

6:31 PM CDT on October 21, 2019 (GMT -0500)
Baton Rouge Metro-Ryan

Weather History for KBTR - August, 2019

Change the Weather History Date:

Tuesday, August 6, 2019

  Actual Average Record
Temperature  
Mean Temperature 86 °F 83 °F  
Max Temperature 94 °F 93 °F 102 °F (1921)
Min Temperature 77 °F 74 °F 65 °F (1912)
Degree Days  
Heating Degree Days 0 0  
Month to date heating degree days 0 0  
Since 1 June heating degree days 0 0  
Since 1 July heating degree days 0 0  
Cooling Degree Days 21 18  
Month to date cooling degree days 113 108  
Year to date cooling degree days 1847 1713  
Since 1 June cooling degree days 1176 1148  
Growing Degree Days 36 (Base 50)    
Moisture  
Dew Point 74 °F    
Average Humidity 70    
Maximum Humidity 91    
Minimum Humidity 49    
Precipitation  
Precipitation 0.00 in 0.19 in 2.56 in (1928)
Month to date precipitation 0.25 1.13  
Year to date precipitation 41.67 37.02  
Snow  
Snow 0.00 in - - ()
Month to date snowfall 0.0  
Since 1 June snowfall 0.0  
Since 1 July snowfall 0.0  
Snow Depth 0.00 in    
Sea Level Pressure  
Sea Level Pressure 29.95 in    
Wind  
Wind Speed 6 mph (WSW)    
Max Wind Speed 13 mph    
Max Gust Speed 15 mph    
Visibility 10 miles    
Events      
T = Trace of Precipitation, MM = Missing Value Source: NWS Daily Summary

Daily Weather History Graph

Daily Weather History Graph

Search for Another Location

Airport or City:

Astronomy

Aug. 06, 2019 Rise Set
Actual Time 6:25 AM CDT 7:54 PM CDT
Civil Twilight 5:59 AM CDT 8:20 PM CDT
Nautical Twilight 5:28 AM CDT 8:51 PM CDT
Astronomical Twilight 4:56 AM CDT 9:23 PM CDT
Moon 12:25 PM CDT (8/6) No Moon Set
Length of Visible Light 14h 20m
Length of Day
13h 29m
Waxing Crescent, 39% of the Moon is Illuminated
Aug 6
Waxing Crescent
Aug 7
First Quarter
Aug 15
Full
Aug 23
Last Quarter
Aug 30
New

Hourly Weather History & Observations

Time (CDT) Temp. Heat Index Dew Point Humidity Pressure Visibility Wind Dir Wind Speed Gust Speed Precip Events Conditions
12:53 AM 79.0 °F - 75.0 °F 88% 29.95 in 10.0 mi Calm Calm - N/A   Clear
1:53 AM 80.1 °F 85.1 °F 75.0 °F 85% 29.94 in 10.0 mi WSW 5.8 mph - N/A   Clear
2:53 AM 80.1 °F 85.1 °F 75.0 °F 85% 29.94 in 10.0 mi SW 8.1 mph - N/A   Clear
3:53 AM 79.0 °F - 75.0 °F 88% 29.95 in 10.0 mi West 4.6 mph - N/A   Clear
4:53 AM 78.1 °F - 75.0 °F 90% 29.95 in 10.0 mi West 4.6 mph - N/A   Clear
5:53 AM 78.1 °F - 75.0 °F 90% 29.96 in 10.0 mi Calm Calm - N/A   Partly Cloudy
6:53 AM 78.1 °F - 75.0 °F 90% 29.98 in 10.0 mi Calm Calm - N/A   Clear
7:53 AM 82.0 °F 90.2 °F 77.0 °F 85% 29.99 in 10.0 mi West 6.9 mph - N/A   Clear
8:53 AM 84.0 °F 92.6 °F 75.9 °F 76% 30.00 in 10.0 mi West 8.1 mph - N/A   Clear
9:53 AM 86.0 °F 95.1 °F 75.0 °F 70% 30.00 in 10.0 mi West 9.2 mph - N/A   Scattered Clouds
10:26 AM 86.0 °F 95.1 °F 75.0 °F 70% 30.00 in 10.0 mi WNW 6.9 mph - N/A   Mostly Cloudy
11:53 AM 90.0 °F 99.0 °F 73.9 °F 59% 29.98 in 10.0 mi West 5.8 mph - N/A   Mostly Cloudy
12:53 PM 91.9 °F 101.3 °F 73.9 °F 55% 29.97 in 10.0 mi West 8.1 mph - N/A   Mostly Cloudy
1:00 PM 91.0 °F 99.3 °F 73.0 °F 55% 29.97 in 10.0 mi WSW 5.8 mph - N/A   Scattered Clouds
1:53 PM 93.0 °F 101.9 °F 73.0 °F 52% 29.94 in 10.0 mi West 5.8 mph - N/A   Partly Cloudy
2:53 PM 93.0 °F 100.7 °F 72.0 °F 50% 29.92 in 10.0 mi Variable 5.8 mph - N/A   Mostly Cloudy
3:53 PM 93.0 °F 100.7 °F 72.0 °F 50% 29.91 in 10.0 mi West 9.2 mph - N/A   Mostly Cloudy
4:53 PM 91.9 °F 99.5 °F 72.0 °F 52% 29.91 in 10.0 mi West 8.1 mph - N/A   Scattered Clouds
5:53 PM 91.0 °F 99.3 °F 73.0 °F 55% 29.91 in 10.0 mi North 3.5 mph - N/A   Scattered Clouds
6:53 PM 87.1 °F 96.3 °F 75.0 °F 67% 29.90 in 10.0 mi South 9.2 mph - N/A   Overcast
7:53 PM 84.9 °F 92.1 °F 73.9 °F 69% 29.90 in 10.0 mi SW 6.9 mph - N/A   Clear
8:53 PM 82.9 °F 89.4 °F 73.9 °F 74% 29.91 in 10.0 mi SW 5.8 mph - N/A   Clear
9:53 PM 82.0 °F 88.6 °F 75.0 °F 79% 29.93 in 10.0 mi WSW 4.6 mph - N/A   Clear
10:53 PM 82.9 °F 90.8 °F 75.9 °F 79% 29.93 in 10.0 mi SW 5.8 mph - N/A   Clear
11:53 PM 82.0 °F 89.4 °F 75.9 °F 82% 29.94 in 10.0 mi SW 6.9 mph - N/A   Clear